Location: My-Spot Observatory
(42.5758°N, 83.4144°W)
Time: 18:19:11
(UTC-04:00)

Envisat - Visible Passes

Search period start: 21 March 2019 00:00
Search period end: 31 March 2019 00:00
Orbit: 764 x 766 km, 98.2° (Epoch: 21 March)

Date Brightness Start Highest point End Pass type
(mag) Time Alt. Az. Time Alt. Az. Time Alt. Az.
21 Mar 3.3 20:16:36 10° S 20:21:40 75° WSW 20:26:46 10° NNW visible
22 Mar 5.7 21:20:38 10° SW 21:24:17 20° W 21:27:57 10° NW visible
23 Mar 4.3 20:42:28 10° S 20:47:16 43° W 20:52:06 10° NNW visible
24 Mar 6.2 21:48:51 10° WSW 21:50:08 11° W 21:51:25 10° WNW visible
25 Mar 5.4 21:08:51 10° SSW 21:12:58 25° W 21:17:07 10° NW visible
26 Mar 3.9 20:31:04 10° S 20:36:01 54° W 20:41:01 10° NNW visible
27 Mar 5.9 21:36:07 10° WSW 21:38:46 14° W 21:41:26 10° WNW visible
28 Mar 5.0 20:57:12 10° SSW 21:01:40 31° W 21:06:10 10° NNW visible
29 Mar 3.4 20:19:44 10° S 20:24:46 69° WSW 20:29:52 10° NNW visible
30 Mar 5.8 21:24:01 10° SW 21:27:26 18° W 21:30:52 10° NW visible
